Location: Saluda
(35.2377°N, 82.3468°W)
Time: 15:46:51
(UTC+00:00)

Transit 2A - Pass Details

Date: 04 October 2022
Orbit: 598 x 959 km, 66.7° (Epoch: 06 December)

Event Time Altitude Azimuth Distance (km) Brightness Sun altitude
Rises 03:15:20 0° 190° (S) 2,984 - -48.0°
Reaches altitude 10° 03:17:46 10° 184° (S) 2,031 - -48.4°
Maximum altitude 03:22:04 43° 112° (ESE) 865 - -49.1°
Drops below altitude 10° 03:26:10 10° 41° (NE) 1,946 - -49.7°
Sets 03:28:27 0° 35° (NE) 2,844 - -50.0°
